RH
40 44 52 58 55 56 59 54 54 56 56 53 50 49 49 48 51 52 58 62 62 62 67 70 72 67 61 54 50 44 45 48 52 55 57 59 63 63 65 69 76 79 76 70
35 38 48 58 54 53 54 53 53 51 50 49 47 43 40 42 44 47 54 55 59 64 65 69 71 69 67 59 58 56 55 55 55 56 60 64 65 66 67 67 74 81 77 72
31 35 46 48 53 52 52 52 53 51 50 50 49 44 41 38 40 42 45 49 54 60 65 66 74 77 72 68 65 62 56 55 53 54 57 61 64 66 69 68 67 77 82 77
29 38 37 42 48 51 52 48 46 47 48 50 45 46 36 36 37 39 42 46 50 55 61 64 68 71 70 71 70 70 63 58 51 49 54 58 64 67 69 70 71 74 74 75
28 30 36 46 45 48 54 47 45 43 43 42 49 40 40 37 36 39 41 42 48 54 58 62 63 67 66 72 75 73 70 66 62 53 56 59 67 68 70 71 72 75 71 71
28 30 32 34 40 48 46 45 42 40 44 45 50 42 40 42 38 37 39 40 42 50 51 53 61 67 67 73 76 76 70 69 66 62 60 60 65 65 67 71 74 75 74 74
25 31 33 38 42 43 43 44 50 50 51 49 46 42 41 35 36 37 37 39 43 42 42 46 55 61 62 66 72 71 72 72 68 65 56 52 57 66 67 72 76 76 76 79
28 30 32 34 38 43 41 53 49 51 48 45 48 42 42 33 35 35 37 38 40 44 43 46 49 56 56 60 68 68 71 73 70 64 62 51 49 55 70 76 78 76 76 78
22 25 31 31 34 42 49 46 48 50 43 45 41 43 36 34 35 33 33 37 40 44 45 46 46 49 50 56 60 67 71 73 68 63 61 56 48 53 54 60 77 79 77 77
15 18 20 27 32 38 42 52 48 42 47 49 41 42 38 36 33 33 30 35 35 40 47 49 46 48 50 53 59 60 65 66 67 65 61 58 50 50 52 58 63 78 79 71
14 20 24 31 29 32 36 38 43 44 47 44 41 36 38 32 30 30 29 30 33 35 43 46 45 46 50 52 56 55 59 63 63 62 58 55 51 48 49 53 61 68 83 79
12 15 22 27 23 28 41 42 44 46 40 42 41 34 34 35 31 28 27 30 32 34 38 46 47 45 45 49 52 55 57 57 59 57 50 54 52 50 52 55 63 64 85 82
13 14 21 27 27 23 25 37 41 42 38 40 46 34 33 31 28 26 23 24 28 30 33 39 46 45 48 50 54 56 53 54 54 54 52 54 50 55 59 64 69 66 83 85
15 16 19 23 20 21 22 22 31 37 41 40 39 34 31 26 24 22 22 24 28 30 35 35 41 45 49 55 56 55 54 56 55 52 56 57 55 57 70 76 75 70 82 86
16 16 17 17 17 17 17 19 23 28 35 40 38 33 29 29 24 21 18 22 24 27 41 39 42 46 54 59 59 58 54 52 52 51 53 56 55 65 78 78 78 77 82 84
22 22 23 23 20 19 20 17 17 21 26 31 36 34 33 27 24 20 21 21 23 26 31 38 43 50 56 61 63 57 54 49 52 51 51 52 64 77 80 78 80 81 84 86
27 26 28 26 24 23 22 18 18 18 19 22 24 22 26 25 23 22 22 20 22 24 28 32 39 49 57 62 65 55 55 49 46 49 55 63 80 82 86 80 81 84 85 86
30 30 31 31 29 28 22 22 22 22 22 23 23 24 22 23 24 22 20 22 24 23 26 30 35 46 60 63 64 56 58 46 52 62 71 81 82 85 85 81 83 85 86 87
30 32 32 30 30 27 28 28 22 22 24 26 23 22 22 22 21 20 25 22 23 24 26 30 33 43 56 63 59 59 53 47 51 63 72 77 80 82 83 85 86 82 74 73
27 27 30 33 31 30 34 32 29 28 27 30 30 30 31 29 29 30 32 23 23 25 27 30 32 40 54 63 62 60 44 42 39 46 54 64 77 80 83 83 72 64 57 66
31 31 29 29 31 32 34 31 28 28 33 34 34 35 35 35 35 28 23 25 27 30 33 33 34 38 52 56 60 60 42 39 35 40 46 49 58 70 78 77 68 52 53 70
30 29 27 26 28 32 31 28 29 32 33 35 35 37 38 37 34 28 26 27 31 32 38 36 37 39 49 59 59 46 34 38 36 38 48 46 46 52 51 57 48 51 58 68
27 27 33 32 38 35 33 33 34 34 37 35 35 38 39 38 35 32 31 32 32 36 42 44 44 44 50 56 49 38 30 39 39 37 39 41 40 40 41 40 44 51 53 59
30 29 29 30 32 32 32 33 33 35 37 37 36 36 37 36 36 34 35 40 36 38 43 49 52 51 52 57 43 38 35 38 39 41 40 39 40 39 48 44 48 52 59 49
32 29 30 29 32 32 32 33 31 32 34 35 35 36 36 37 36 37 38 41 43 44 45 50 55 59 62 71 55 49 42 43 44 40 44 45 42 44 41 41 45 46 50 45
31 33 29 34 35 33 35 32 30 32 33 32 34 35 37 37 38 37 36 38 44 49 51 53 58 64 63 69 68 67 60 53 46 40 44 49 42 41 43 41 43 41 45 44